,,Stat6,,Stat2,,Stat8,,Stat9,,Stat10,,Wind1,,Wind1,
time,status,PA1M_AVG,status,PR1M_SUM,status,RH1M_AVG,status,SR1M_AVG,status,TA1M_AVG,status,W1dAve1m,status,W1sAve1m,
2008-11-23, 00:00:00,VALID,917.574,VALID,0,VALID,100,VALID,0.0339617,VALID,18.4043,VALID,143,VALID,0,
2008-11-23, 00:01:00,VALID,917.582,VALID,0,VALID,100,VALID,0.0679233,VALID,18.4133,VALID,139,VALID,0,
2008-11-23, 00:02:00,VALID,917.583,VALID,0,VALID,100,VALID,0.0509425,VALID,18.4233,VALID,140,VALID,0,
2008-11-23, 00:03:00,VALID,917.583,VALID,0,VALID,100,VALID,0.0849042,VALID,18.4163,VALID,140,VALID,0,
2008-11-23, 00:04:00,VALID,917.58,VALID,0,VALID,100,VALID,0.0849042,VALID,18.3969,VALID,139,VALID,0,
2008-11-23, 00:05:00,VALID,917.575,VALID,0,VALID,100,VALID,0.0849042,VALID,18.3744,VALID,129,VALID,0,
2008-11-23, 00:06:00,VALID,917.557,VALID,0,VALID,100,VALID,0.101885,VALID,18.3809,VALID,128,VALID,0,
2008-11-23, 00:07:00,VALID,917.544,VALID,0,VALID,100,VALID,0,VALID,18.3753,VALID,124,VALID,0,
2008-11-23, 00:08:00,VALID,917.521,VALID,0,VALID,100,VALID,-0.0339617,VALID,18.3466,VALID,126,VALID,0,
2008-11-23, 00:09:00,VALID,917.5,VALID,0,VALID,100,VALID,-0.0339617,VALID,18.3401,VALID,136,VALID,0,
2008-11-23, 00:10:00,VALID,917.481,VALID,0,VALID,100,VALID,-0.0169808,VALID,18.3468,VALID,139,VALID,0,
2008-11-23, 00:11:00,VALID,917.468,VALID,0,VALID,100,VALID,-0.0339617,VALID,18.3204,VALID,146,VALID,0,
2008-11-23, 00:12:00,VALID,917.463,VALID,0,VALID,100,VALID,0,VALID,18.3174,VALID,157,VALID,0,
2008-11-23, 00:13:00,VALID,917.433,VALID,0,VALID,100,VALID,0,VALID,18.2912,VALID,157,VALID,0,
2008-11-23, 00:14:00,VALID,917.416,VALID,0,VALID,100,VALID,-0.0169808,VALID,18.2528,VALID,157,VALID,0,
2008-11-23, 00:15:00,VALID,917.407,VALID,0,VALID,100,VALID,-0.0339617,VALID,18.2363,VALID,157,VALID,0,
2008-11-23, 00:16:00,VALID,917.397,VALID,0,VALID,100,VALID,-0.0339617,VALID,18.259,VALID,156,VALID,0,
2008-11-23, 00:17:00,VALID,917.385,VALID,0,VALID,100,VALID,-0.0849042,VALID,18.2912,VALID,156,VALID,0,
2008-11-23, 00:18:00,VALID,917.382,VALID,0,VALID,100,VALID,-0.0509425,VALID,18.3311,VALID,155,VALID,0,
2008-11-23, 00:19:00,VALID,917.377,VALID,0,VALID,100,VALID,-0.0169808,VALID,18.3174,VALID,153,VALID,0,
2008-11-23, 00:20:00,VALID,917.381,VALID,0,VALID,100,VALID,-0.0509425,VALID,18.3269,VALID,153,VALID,0,
2008-11-23, 00:21:00,VALID,917.371,VALID,0,VALID,100,VALID,-0.0169808,VALID,18.3464,VALID,152,VALID,0,
2008-11-23, 00:22:00,VALID,917.382,VALID,0,VALID,100,VALID,-0.0509425,VALID,18.3498,VALID,146,VALID,0,
2008-11-23, 00:23:00,VALID,917.383,VALID,0,VALID,100,VALID,-0.0339617,VALID,18.3596,VALID,135,VALID,0,
2008-11-23, 00:24:00,VALID,917.378,VALID,0,VALID,100,VALID,-0.0509425,VALID,18.3628,VALID,139,VALID,0,
2008-11-23, 00:25:00,VALID,917.377,VALID,0,VALID,100,VALID,-0.0679233,VALID,18.3661,VALID,139,VALID,0.146949,
2008-11-23, 00:26:00,VALID,917.376,VALID,0,VALID,100,VALID,-0.0849042,VALID,18.3698,VALID,149,VALID,0.343572,
2008-11-23, 00:27:00,VALID,917.371,VALID,0,VALID,100,VALID,-0.0339617,VALID,18.3725,VALID,152,VALID,0.169457,
2008-11-23, 00:28:00,VALID,917.358,VALID,0,VALID,100,VALID,0,VALID,18.3658,VALID,145,VALID,0,
2008-11-23, 00:29:00,VALID,917.344,VALID,0,VALID,100,VALID,-0.0169808,VALID,18.3661,VALID,152,VALID,0,
2008-11-23, 00:30:00,VALID,917.347,VALID,0,VALID,100,VALID,-0.0679233,VALID,18.3663,VALID,143,VALID,0,
2008-11-23, 00:31:00,VALID,917.332,VALID,0,VALID,100,VALID,-0.0169808,VALID,18.3498,VALID,133,VALID,0.100497,
2008-11-23, 00:32:00,VALID,917.321,VALID,0,VALID,100,VALID,0,VALID,18.3301,VALID,130,VALID,0.00887784,
2008-11-23, 00:33:00,VALID,917.307,VALID,0,VALID,100,VALID,-0.0339617,VALID,18.3109,VALID,125,VALID,0.0364583,
2008-11-23, 00:34:00,VALID,917.298,VALID,0,VALID,100,VALID,-0.0169808,VALID,18.2945,VALID,131,VALID,0.367006,
2008-11-23, 00:35:00,VALID,917.286,VALID,0,VALID,100,VALID,-0.0169808,VALID,18.3162,VALID,126,VALID,0.0971799,
2008-11-23, 00:36:00,VALID,917.273,VALID,0,VALID,100,VALID,-0.0169808,VALID,18.3531,VALID,120,VALID,0.0130859,
2008-11-23, 00:37:00,VALID,917.248,VALID,0,VALID,100,VALID,0.0509425,VALID,18.3552,VALID,114,VALID,0.0870808,
2008-11-23, 00:38:00,VALID,917.242,VALID,0,VALID,100,VALID,0.0509425,VALID,18.3517,VALID,116,VALID,0,
2008-11-23, 00:39:00,VALID,917.224,VALID,0,VALID,100,VALID,0.0679233,VALID,18.3283,VALID,126,VALID,0.0307049,
2008-11-23, 00:40:00,VALID,917.219,VALID,0,VALID,100,VALID,0.0849042,VALID,18.3093,VALID,130,VALID,0,
2008-11-23, 00:41:00,VALID,917.202,VALID,0,VALID,100,VALID,0.101885,VALID,18.3058,VALID,129,VALID,0,
2008-11-23, 00:42:00,VALID,917.195,VALID,0,VALID,100,VALID,0.0679233,VALID,18.3026,VALID,128,VALID,0,
2008-11-23, 00:43:00,VALID,917.173,VALID,0,VALID,100,VALID,0.0679233,VALID,18.2898,VALID,130,VALID,0,
2008-11-23, 00:44:00,VALID,917.151,VALID,0,VALID,100,VALID,0.0849042,VALID,18.2607,VALID,121,VALID,0.102805,
2008-11-23, 00:45:00,VALID,917.145,VALID,0,VALID,100,VALID,0.0679233,VALID,18.2248,VALID,116,VALID,0.157774,
2008-11-23, 00:46:00,VALID,917.128,VALID,0,VALID,100,VALID,0.0679233,VALID,18.2382,VALID,120,VALID,0,
2008-11-23, 00:47:00,VALID,917.115,VALID,0,VALID,100,VALID,0.0679233,VALID,18.2118,VALID,113,VALID,0,
2008-11-23, 00:48:00,VALID,917.107,VALID,0,VALID,100,VALID,0.0679233,VALID,18.1763,VALID,113,VALID,0.112995,
2008-11-23, 00:49:00,VALID,917.085,VALID,0,VALID,100,VALID,0.0339617,VALID,18.1469,VALID,111,VALID,0.303234,
2008-11-23, 00:50:00,VALID,917.064,VALID,0,VALID,100,VALID,0.0509425,VALID,18.1113,VALID,102,VALID,0.0305233,
2008-11-23, 00:51:00,VALID,917.056,VALID,0,VALID,100,VALID,0.0509425,VALID,18.0918,VALID,120,VALID,0.0918899,
2008-11-23, 00:52:00,VALID,917.041,VALID,0,VALID,100,VALID,0.0169808,VALID,18.1353,VALID,121,VALID,0.0384909,
2008-11-23, 00:53:00,VALID,917.018,VALID,0,VALID,100,VALID,-0.0509425,VALID,18.1418,VALID,120,VALID,0.0390625,
2008-11-23, 00:54:00,VALID,916.995,VALID,0,VALID,100,VALID,-0.0169808,VALID,18.1483,VALID,128,VALID,0.00223214,
2008-11-23, 00:55:00,VALID,916.969,VALID,0,VALID,100,VALID,-0.0339617,VALID,18.1358,VALID,124,VALID,0.0572917,
2008-11-23, 00:56:00,VALID,916.921,VALID,0,VALID,100,VALID,-0.0339617,VALID,18.1129,VALID,122,VALID,0,
2008-11-23, 00:57:00,VALID,916.899,VALID,0,VALID,100,VALID,-0.0169808,VALID,18.083,VALID,119,VALID,0,
2008-11-23, 00:58:00,VALID,916.888,VALID,0,VALID,100,VALID,-0.0169808,VALID,18.0672,VALID,115,VALID,0.0695685,
2008-11-23, 00:59:00,VALID,916.874,VALID,0,VALID,100,VALID,-0.0339617,VALID,18.0475,VALID,108,VALID,0.209666,
2008-11-23, 01:00:00,VALID,916.88,VALID,0,VALID,100,VALID,-0.0679233,VALID,18.0445,VALID,110,VALID,0,
2008-11-23, 01:01:00,VALID,916.87,VALID,0,VALID,100,VALID,-0.0509425,VALID,18.0091,VALID,111,VALID,0,
2008-11-23, 01:02:00,VALID,916.873,VALID,0,VALID,100,VALID,-0.0679233,VALID,18.0026,VALID,111,VALID,0,
2008-11-23, 01:03:00,VALID,916.867,VALID,0,VALID,100,VALID,-0.0509425,VALID,17.9862,VALID,107,VALID,0,
2008-11-23, 01:04:00,VALID,916.852,VALID,0,VALID,100,VALID,-0.0169808,VALID,17.934,VALID,98,VALID,0,
2008-11-23, 01:05:00,VALID,916.85,VALID,0,VALID,100,VALID,-0.0169808,VALID,17.9665,VALID,106,VALID,0.11101,
2008-11-23, 01:06:00,VALID,916.836,VALID,0,VALID,100,VALID,-0.0169808,VALID,18.0253,VALID,115,VALID,0.0492369,
2008-11-23, 01:07:00,VALID,916.838,VALID,0,VALID,100,VALID,-0.0339617,VALID,18.0804,VALID,116,VALID,0.0310683,
2008-11-23, 01:08:00,VALID,916.827,VALID,0,VALID,100,VALID,-0.0849042,VALID,18.1286,VALID,113,VALID,0.244474,
2008-11-23, 01:09:00,VALID,916.819,VALID,0,VALID,100,VALID,-0.0509425,VALID,18.171,VALID,118,VALID,0.160256,
2008-11-23, 01:10:00,VALID,916.801,VALID,0,VALID,100,VALID,-0.0169808,VALID,18.2164,VALID,117,VALID,0.10026,
2008-11-23, 01:11:00,VALID,916.801,VALID,0,VALID,100,VALID,-0.0169808,VALID,18.2097,VALID,120,VALID,0.449929,
2008-11-23, 01:12:00,VALID,916.791,VALID,0,VALID,100,VALID,-0.0509425,VALID,18.2166,VALID,112,VALID,0.80069,
2008-11-23, 01:13:00,VALID,916.774,VALID,0,VALID,99.9977,VALID,-0.0509425,VALID,18.1868,VALID,121,VALID,0.0012718,
2008-11-23, 01:14:00,VALID,916.774,VALID,0,VALID,100,VALID,0,VALID,18.1837,VALID,130,VALID,0.227679,
2008-11-23, 01:15:00,VALID,916.776,VALID,0,VALID,100,VALID,-0.0169808,VALID,18.1842,VALID,137,VALID,0,
2008-11-23, 01:16:00,VALID,916.76,VALID,0,VALID,99.9967,VALID,-0.0339617,VALID,18.1448,VALID,141,VALID,0.000177557,
2008-11-23, 01:17:00,VALID,916.74,VALID,0,VALID,100,VALID,-0.0169808,VALID,18.1356,VALID,139,VALID,0.862926,
2008-11-23, 01:18:00,VALID,916.724,VALID,0,VALID,100,VALID,-0.0169808,VALID,18.1284,VALID,125,VALID,0.560138,
2008-11-23, 01:19:00,VALID,916.698,VALID,0,VALID,100,VALID,-0.0509425,VALID,18.1286,VALID,126,VALID,0.369141,
2008-11-23, 01:20:00,VALID,916.669,VALID,0,VALID,100,VALID,-0.0169808,VALID,18.1346,VALID,129,VALID,0.645833,
2008-11-23, 01:21:00,VALID,916.645,VALID,0,VALID,100,VALID,0,VALID,18.1414,VALID,132,VALID,0.0591264,
2008-11-23, 01:22:00,VALID,916.621,VALID,0,VALID,100,VALID,-0.0339617,VALID,18.1061,VALID,128,VALID,0,
2008-11-23, 01:23:00,VALID,916.609,VALID,0,VALID,100,VALID,-0.0509425,VALID,18.0767,VALID,132,VALID,0,
2008-11-23, 01:24:00,VALID,916.587,VALID,0,VALID,100,VALID,-0.0169808,VALID,18.0538,VALID,136,VALID,0,
2008-11-23, 01:25:00,VALID,916.578,VALID,0,VALID,100,VALID,0,VALID,18.0144,VALID,142,VALID,0.793255,
2008-11-23, 01:26:00,VALID,916.568,VALID,0,VALID,100,VALID,-0.0169808,VALID,17.992,VALID,148,VALID,0.732887,
2008-11-23, 01:27:00,VALID,916.549,VALID,0,VALID,100,VALID,-0.0339617,VALID,17.9637,VALID,137,VALID,0.621449,
2008-11-23, 01:28:00,VALID,916.536,VALID,0,VALID,100,VALID,-0.0339617,VALID,17.957,VALID,136,VALID,0.766183,
2008-11-23, 01:29:00,VALID,916.52,VALID,0,VALID,100,VALID,-0.0679233,VALID,17.9503,VALID,144,VALID,0.936458,
2008-11-23, 01:30:00,VALID,916.51,VALID,0,VALID,100,VALID,-0.0509425,VALID,17.9727,VALID,152,VALID,0.873224,
2008-11-23, 01:31:00,VALID,916.474,VALID,0,VALID,100,VALID,-0.0339617,VALID,17.9695,VALID,151,VALID,0.89335,
2008-11-23, 01:32:00,VALID,916.444,VALID,0,VALID,100,VALID,0,VALID,17.979,VALID,152,VALID,1.4441,
2008-11-23, 01:33:00,VALID,916.397,VALID,0,VALID,100,VALID,-0.0679233,VALID,17.9862,VALID,148,VALID,1.41523,
2008-11-23, 01:34:00,VALID,916.378,VALID,0,VALID,100,VALID,-0.0339617,VALID,17.9894,VALID,149,VALID,1.60247,
2008-11-23, 01:35:00,VALID,916.375,VALID,0,VALID,100,VALID,-0.0339617,VALID,18.0024,VALID,148,VALID,0.482244,
2008-11-23, 01:36:00,VALID,916.352,VALID,0,VALID,100,VALID,-0.0679233,VALID,18.0086,VALID,138,VALID,0,
2008-11-23, 01:37:00,VALID,916.337,VALID,0,VALID,100,VALID,-0.0339617,VALID,18.0383,VALID,135,VALID,0,
2008-11-23, 01:38:00,VALID,916.339,VALID,0,VALID,100,VALID,-0.0169808,VALID,18.064,VALID,133,VALID,0.0371528,
2008-11-23, 01:39:00,VALID,916.32,VALID,0,VALID,100,VALID,-0.0169808,VALID,18.0932,VALID,131,VALID,0,
2008-11-23, 01:40:00,VALID,916.327,VALID,0,VALID,100,VALID,-0.0339617,VALID,18.1191,VALID,137,VALID,0,
2008-11-23, 01:41:00,VALID,916.321,VALID,0,VALID,100,VALID,-0.0509425,VALID,18.1323,VALID,137,VALID,0,
2008-11-23, 01:42:00,VALID,916.323,VALID,0,VALID,100,VALID,-0.0509425,VALID,18.1224,VALID,135,VALID,0,
2008-11-23, 01:43:00,VALID,916.299,VALID,0,VALID,100,VALID,-0.0339617,VALID,18.1261,VALID,133,VALID,0,
2008-11-23, 01:44:00,VALID,916.268,VALID,0,VALID,100,VALID,-0.0509425,VALID,18.1228,VALID,133,VALID,0,
2008-11-23, 01:45:00,VALID,916.248,VALID,0,VALID,100,VALID,-0.0679233,VALID,18.1453,VALID,140,VALID,0,
2008-11-23, 01:46:00,VALID,916.245,VALID,0,VALID,100,VALID,-0.0849042,VALID,18.1782,VALID,144,VALID,0,
2008-11-23, 01:47:00,VALID,916.242,VALID,0,VALID,100,VALID,-0.0679233,VALID,18.1909,VALID,149,VALID,0,
2008-11-23, 01:48:00,VALID,916.241,VALID,0,VALID,100,VALID,0,VALID,18.2004,VALID,148,VALID,0.246449,
2008-11-23, 01:49:00,VALID,916.219,VALID,0,VALID,100,VALID,-0.0339617,VALID,18.2493,VALID,150,VALID,0.181463,
2008-11-23, 01:50:00,VALID,916.21,VALID,0,VALID,99.9674,VALID,-0.0169808,VALID,18.2912,VALID,153,VALID,0.0317951,
2008-11-23, 01:51:00,VALID,916.214,VALID,0,VALID,99.7548,VALID,-0.0339617,VALID,18.3274,VALID,149,VALID,0,
2008-11-23, 01:52:00,VALID,916.224,VALID,0,VALID,99.6404,VALID,-0.0679233,VALID,18.3206,VALID,158,VALID,0.0350654,
2008-11-23, 01:53:00,VALID,916.233,VALID,0,VALID,99.6022,VALID,-0.0849042,VALID,18.3241,VALID,157,VALID,0.00744913,
2008-11-23, 01:54:00,VALID,916.227,VALID,0,VALID,99.5768,VALID,-0.101885,VALID,18.3438,VALID,158,VALID,0.0012429,
2008-11-23, 01:55:00,VALID,916.209,VALID,0,VALID,99.5717,VALID,-0.101885,VALID,18.3401,VALID,156,VALID,0,
2008-11-23, 01:56:00,VALID,916.205,VALID,0,VALID,99.4369,VALID,-0.101885,VALID,18.3244,VALID,150,VALID,0,
2008-11-23, 01:57:00,VALID,916.171,VALID,0,VALID,99.4471,VALID,-0.0509425,VALID,18.2882,VALID,142,VALID,0,
2008-11-23, 01:58:00,VALID,916.177,VALID,0,VALID,99.5247,VALID,-0.101885,VALID,18.2692,VALID,139,VALID,0,
2008-11-23, 01:59:00,VALID,916.172,VALID,0,VALID,99.5844,VALID,-0.0849042,VALID,18.2396,VALID,137,VALID,0,
2008-11-23, 02:00:00,VALID,916.179,VALID,0,VALID,99.6468,VALID,-0.0679233,VALID,18.2298,VALID,127,VALID,0.0333333,
2008-11-23, 02:01:00,VALID,916.185,VALID,0,VALID,99.6289,VALID,-0.0509425,VALID,18.2296,VALID,131,VALID,0,
2008-11-23, 02:02:00,VALID,916.205,VALID,0,VALID,99.5743,VALID,-0.0679233,VALID,18.2162,VALID,131,VALID,0,
2008-11-23, 02:03:00,VALID,916.211,VALID,0,VALID,99.7383,VALID,-0.0509425,VALID,18.2331,VALID,131,VALID,0,
2008-11-23, 02:04:00,VALID,916.204,VALID,0,VALID,99.5883,VALID,-0.0849042,VALID,18.2393,VALID,125,VALID,0,
2008-11-23, 02:05:00,VALID,916.215,VALID,0,VALID,99.47,VALID,-0.0509425,VALID,18.2136,VALID,121,VALID,0,
2008-11-23, 02:06:00,VALID,916.241,VALID,0,VALID,99.4903,VALID,-0.0679233,VALID,18.1847,VALID,113,VALID,0,
2008-11-23, 02:07:00,VALID,916.252,VALID,0,VALID,99.5565,VALID,-0.0679233,VALID,18.1488,VALID,111,VALID,0,
2008-11-23, 02:08:00,VALID,916.265,VALID,0,VALID,99.7065,VALID,-0.0679233,VALID,18.1457,VALID,117,VALID,0,
2008-11-23, 02:09:00,VALID,916.286,VALID,0,VALID,99.6798,VALID,-0.0849042,VALID,18.1261,VALID,118,VALID,0,
2008-11-23, 02:10:00,VALID,916.308,VALID,0,VALID,99.6137,VALID,-0.0849042,VALID,18.0971,VALID,117,VALID,0,
2008-11-23, 02:11:00,VALID,916.328,VALID,0,VALID,99.793,VALID,-0.0849042,VALID,18.0709,VALID,113,VALID,0,
2008-11-23, 02:12:00,VALID,916.335,VALID,0,VALID,99.8197,VALID,-0.0679233,VALID,18.0549,VALID,105,VALID,0,
2008-11-23, 02:13:00,VALID,916.343,VALID,0,VALID,99.9278,VALID,-0.0679233,VALID,18.042,VALID,104,VALID,0,
2008-11-23, 02:14:00,VALID,916.34,VALID,0,VALID,100,VALID,-0.118866,VALID,18.0385,VALID,106,VALID,0,
2008-11-23, 02:15:00,VALID,916.34,VALID,0,VALID,100,VALID,-0.0849042,VALID,18.032,VALID,119,VALID,0,
2008-11-23, 02:16:00,VALID,916.318,VALID,0,VALID,100,VALID,-0.0679233,VALID,18.061,VALID,119,VALID,0,
2008-11-23, 02:17:00,VALID,916.314,VALID,0,VALID,100,VALID,-0.0679233,VALID,18.0871,VALID,120,VALID,0,
2008-11-23, 02:18:00,VALID,916.3,VALID,0,VALID,100,VALID,-0.0679233,VALID,18.1068,VALID,129,VALID,0,
2008-11-23, 02:19:00,VALID,916.264,VALID,0,VALID,100,VALID,-0.0339617,VALID,18.1034,VALID,127,VALID,0,
2008-11-23, 02:20:00,VALID,916.228,VALID,0,VALID,100,VALID,-0.0849042,VALID,18.1293,VALID,122,VALID,0.151486,
2008-11-23, 02:21:00,VALID,916.22,VALID,0,VALID,99.9451,VALID,-0.101885,VALID,18.1617,VALID,136,VALID,0.121466,
2008-11-23, 02:22:00,VALID,916.211,VALID,0,VALID,99.7447,VALID,-0.0679233,VALID,18.1291,VALID,153,VALID,0.489644,
2008-11-23, 02:23:00,VALID,916.197,VALID,0,VALID,99.7663,VALID,-0.0679233,VALID,18.1196,VALID,152,VALID,0.00381098,
2008-11-23, 02:24:00,VALID,916.185,VALID,0,VALID,99.6633,VALID,-0.0509425,VALID,18.1064,VALID,152,VALID,0,
2008-11-23, 02:25:00,VALID,916.183,VALID,0,VALID,99.7787,VALID,-0.0679233,VALID,18.0904,VALID,147,VALID,0,
2008-11-23, 02:26:00,VALID,916.173,VALID,0,VALID,99.9486,VALID,-0.0509425,VALID,18.1291,VALID,135,VALID,0,
2008-11-23, 02:27:00,VALID,916.173,VALID,0,VALID,99.676,VALID,-0.0339617,VALID,18.1163,VALID,140,VALID,0,
2008-11-23, 02:28:00,VALID,916.157,VALID,0,VALID,99.8207,VALID,-0.0679233,VALID,18.1163,VALID,142,VALID,0.0661337,
2008-11-23, 02:29:00,VALID,916.158,VALID,0,VALID,99.9435,VALID,-0.0509425,VALID,18.1872,VALID,134,VALID,0.16441,
2008-11-23, 02:30:00,VALID,916.168,VALID,0,VALID,99.7078,VALID,-0.186789,VALID,18.2474,VALID,131,VALID,0,
2008-11-23, 02:31:00,VALID,916.163,VALID,0,VALID,99.456,VALID,-0.135847,VALID,18.2504,VALID,126,VALID,0,
2008-11-23, 02:32:00,VALID,916.152,VALID,0,VALID,99.4051,VALID,-0.169808,VALID,18.2699,VALID,119,VALID,0.0654762,
2008-11-23, 02:33:00,VALID,916.144,VALID,0,VALID,99.2398,VALID,-0.135847,VALID,18.2959,VALID,115,VALID,0.28497,
2008-11-23, 02:34:00,VALID,916.171,VALID,0,VALID,99.0796,VALID,-0.135847,VALID,18.2993,VALID,126,VALID,0.263298,
2008-11-23, 02:35:00,VALID,916.208,VALID,0,VALID,98.9054,VALID,-0.152827,VALID,18.2803,VALID,141,VALID,0.00232713,
2008-11-23, 02:36:00,VALID,916.211,VALID,0,VALID,98.838,VALID,-0.169808,VALID,18.2342,VALID,144,VALID,0.04375,
2008-11-23, 02:37:00,VALID,916.194,VALID,0,VALID,98.8774,VALID,-0.0679233,VALID,18.2041,VALID,143,VALID,0,
2008-11-23, 02:38:00,VALID,916.212,VALID,0,VALID,98.8444,VALID,-0.0849042,VALID,18.1617,VALID,148,VALID,0.340554,
2008-11-23, 02:39:00,VALID,916.227,VALID,0,VALID,99.0911,VALID,-0.0339617,VALID,18.1552,VALID,151,VALID,0.00669643,
2008-11-23, 02:40:00,VALID,916.234,VALID,0,VALID,99.2322,VALID,-0.0509425,VALID,18.1645,VALID,153,VALID,0.00558036,
2008-11-23, 02:41:00,VALID,916.238,VALID,0,VALID,99.3619,VALID,-0.0509425,VALID,18.1777,VALID,156,VALID,0,
2008-11-23, 02:42:00,VALID,916.255,VALID,0,VALID,99.3644,VALID,-0.0679233,VALID,18.1193,VALID,157,VALID,0.047476,
2008-11-23, 02:43:00,VALID,916.257,VALID,0,VALID,99.7154,VALID,-0.0169808,VALID,18.0772,VALID,152,VALID,0,
2008-11-23, 02:44:00,VALID,916.252,VALID,0,VALID,99.8744,VALID,-0.0509425,VALID,18.0026,VALID,129,VALID,0.403232,
2008-11-23, 02:45:00,VALID,916.246,VALID,0,VALID,99.999,VALID,-0.0509425,VALID,17.9375,VALID,144,VALID,0.640443,
2008-11-23, 02:46:00,VALID,916.234,VALID,0,VALID,100,VALID,-0.0849042,VALID,17.9218,VALID,147,VALID,0.170541,
2008-11-23, 02:47:00,VALID,916.227,VALID,0,VALID,100,VALID,-0.0509425,VALID,17.9542,VALID,134,VALID,0.439732,
2008-11-23, 02:48:00,VALID,916.22,VALID,0,VALID,100,VALID,-0.0339617,VALID,17.9542,VALID,139,VALID,0.332775,
2008-11-23, 02:49:00,VALID,916.201,VALID,0,VALID,100,VALID,-0.0849042,VALID,17.9574,VALID,139,VALID,0.0611979,
2008-11-23, 02:50:00,VALID,916.212,VALID,0,VALID,100,VALID,-0.101885,VALID,17.9412,VALID,155,VALID,0.00213068,
2008-11-23, 02:51:00,VALID,916.214,VALID,0,VALID,100,VALID,-0.0679233,VALID,17.9438,VALID,140,VALID,0.0894531,
2008-11-23, 02:52:00,VALID,916.203,VALID,0,VALID,100,VALID,-0.0679233,VALID,17.9736,VALID,130,VALID,0.0678819,
2008-11-23, 02:53:00,VALID,916.199,VALID,0,VALID,100,VALID,-0.0169808,VALID,17.9767,VALID,133,VALID,0.382086,
2008-11-23, 02:54:00,VALID,916.211,VALID,0,VALID,100,VALID,-0.0679233,VALID,17.9769,VALID,120,VALID,0.0820313,
2008-11-23, 02:55:00,VALID,916.206,VALID,0,VALID,100,VALID,-0.0509425,VALID,17.9767,VALID,145,VALID,0.240451,
2008-11-23, 02:56:00,VALID,916.155,VALID,0,VALID,99.9916,VALID,-0.0509425,VALID,17.9836,VALID,118,VALID,0,
2008-11-23, 02:57:00,VALID,916.161,VALID,0,VALID,99.8197,VALID,-0.0339617,VALID,17.9998,VALID,150,VALID,0,
2008-11-23, 02:58:00,VALID,916.149,VALID,0,VALID,99.6061,VALID,-0.0339617,VALID,17.9864,VALID,135,VALID,0,
2008-11-23, 02:59:00,VALID,916.15,VALID,0,VALID,99.5348,VALID,-0.0679233,VALID,17.9672,VALID,127,VALID,0.0966797,
2008-11-23, 03:00:00,VALID,916.131,VALID,0,VALID,99.4929,VALID,-0.0679233,VALID,17.9834,VALID,125,VALID,0,
2008-11-23, 03:01:00,VALID,916.117,VALID,0,VALID,99.2767,VALID,-0.0509425,VALID,17.9769,VALID,151,VALID,0.154042,
2008-11-23, 03:02:00,VALID,916.109,VALID,0,VALID,99.236,VALID,-0.0679233,VALID,17.9769,VALID,121,VALID,0.369792,
2008-11-23, 03:03:00,VALID,916.098,VALID,0,VALID,99.0135,VALID,-0.0849042,VALID,17.938,VALID,132,VALID,0.100472,
2008-11-23, 03:04:00,VALID,916.078,VALID,0,VALID,99.0567,VALID,-0.0679233,VALID,17.8828,VALID,150,VALID,0.141533,
2008-11-23, 03:05:00,VALID,916.062,VALID,0,VALID,99.5285,VALID,-0.0339617,VALID,17.9055,VALID,142,VALID,0.0496003,
2008-11-23, 03:06:00,VALID,916.033,VALID,0,VALID,99.5984,VALID,-0.0849042,VALID,17.9447,VALID,125,VALID,0.369978,
2008-11-23, 03:07:00,VALID,916.011,VALID,0,VALID,99.5908,VALID,-0.0679233,VALID,17.9704,VALID,129,VALID,0.253906,
2008-11-23, 03:08:00,VALID,916.003,VALID,0,VALID,99.1813,VALID,-0.0679233,VALID,17.9706,VALID,134,VALID,0.482376,
2008-11-23, 03:09:00,VALID,916.016,VALID,0,VALID,99.0771,VALID,-0.0509425,VALID,17.9053,VALID,139,VALID,0.593559,
2008-11-23, 03:10:00,VALID,916.042,VALID,0,VALID,99.175,VALID,-0.0169808,VALID,17.8664,VALID,164,VALID,0.34189,
2008-11-23, 03:11:00,VALID,916.037,VALID,0,VALID,99.3327,VALID,-0.0509425,VALID,17.827,VALID,148,VALID,0.703804,
2008-11-23, 03:12:00,VALID,916.059,VALID,0,VALID,99.3772,VALID,-0.0509425,VALID,17.8502,VALID,142,VALID,0,
2008-11-23, 03:13:00,VALID,916.079,VALID,0,VALID,99.1699,VALID,-0.0169808,VALID,17.8374,VALID,135,VALID,0,
2008-11-23, 03:14:00,VALID,916.094,VALID,0,VALID,99.1203,VALID,0,VALID,17.7784,VALID,148,VALID,0,
2008-11-23, 03:15:00,VALID,916.099,VALID,0,VALID,99.4382,VALID,-0.0679233,VALID,17.7499,VALID,152,VALID,0,
2008-11-23, 03:16:00,VALID,916.121,VALID,0,VALID,99.5844,VALID,-0.0509425,VALID,17.7043,VALID,134,VALID,0,
2008-11-23, 03:17:00,VALID,916.119,VALID,0,VALID,99.8057,VALID,0,VALID,17.6487,VALID,134,VALID,0.00327035,
2008-11-23, 03:18:00,VALID,916.133,VALID,0,VALID,99.9786,VALID,-0.0849042,VALID,17.6135,VALID,144,VALID,0.204545,
2008-11-23, 03:19:00,VALID,916.117,VALID,0,VALID,100,VALID,-0.0679233,VALID,17.5845,VALID,129,VALID,0.0152616,
2008-11-23, 03:20:00,VALID,916.103,VALID,0,VALID,100,VALID,-0.101885,VALID,17.5486,VALID,151,VALID,0.0871528,
2008-11-23, 03:21:00,VALID,916.094,VALID,0,VALID,100,VALID,-0.0849042,VALID,17.5491,VALID,162,VALID,0.0527344,
2008-11-23, 03:22:00,VALID,916.04,VALID,0,VALID,100,VALID,-0.0339617,VALID,17.5261,VALID,153,VALID,0.00121528,
2008-11-23, 03:23:00,VALID,916.035,VALID,0,VALID,100,VALID,-0.0509425,VALID,17.5197,VALID,174,VALID,1.05098,
2008-11-23, 03:24:00,VALID,916.014,VALID,0,VALID,100,VALID,0,VALID,17.5551,VALID,186,VALID,0.766387,
2008-11-23, 03:25:00,VALID,916.012,VALID,0,VALID,100,VALID,-0.0339617,VALID,17.5681,VALID,175,VALID,0.00550426,
2008-11-23, 03:26:00,VALID,916.012,VALID,0,VALID,100,VALID,-0.0169808,VALID,17.5581,VALID,172,VALID,0,
2008-11-23, 03:27:00,VALID,916.039,VALID,0,VALID,100,VALID,-0.0339617,VALID,17.6005,VALID,174,VALID,0,
2008-11-23, 03:28:00,VALID,916.048,VALID,0,VALID,100,VALID,-0.0849042,VALID,17.6688,VALID,132,VALID,0,
2008-11-23, 03:29:00,VALID,916.034,VALID,0,VALID,100,VALID,-0.0509425,VALID,17.7073,VALID,158,VALID,0.0451601,
2008-11-23, 03:30:00,VALID,916.048,VALID,0,VALID,100,VALID,-0.0169808,VALID,17.7494,VALID,131,VALID,0.00390625,
2008-11-23, 03:31:00,VALID,916.073,VALID,0,VALID,99.9237,VALID,-0.0169808,VALID,17.7527,VALID,121,VALID,0,
2008-11-23, 03:32:00,VALID,916.069,VALID,0,VALID,99.7726,VALID,-0.0339617,VALID,17.7659,VALID,123,VALID,0,
2008-11-23, 03:33:00,VALID,916.079,VALID,0,VALID,99.7688,VALID,-0.0509425,VALID,17.8048,VALID,126,VALID,0,
2008-11-23, 03:34:00,VALID,916.086,VALID,0,VALID,99.3848,VALID,-0.0509425,VALID,17.8178,VALID,142,VALID,0,
2008-11-23, 03:35:00,VALID,916.083,VALID,0,VALID,99.1318,VALID,-0.0509425,VALID,17.8048,VALID,149,VALID,0,
2008-11-23, 03:36:00,VALID,916.08,VALID,0,VALID,98.9245,VALID,-0.0679233,VALID,17.8275,VALID,146,VALID,0,
2008-11-23, 03:37:00,VALID,916.056,VALID,0,VALID,98.6651,VALID,-0.0169808,VALID,17.834,VALID,143,VALID,0,
2008-11-23, 03:38:00,VALID,916.04,VALID,0,VALID,98.2251,VALID,-0.0169808,VALID,17.8472,VALID,122,VALID,0,
2008-11-23, 03:39:00,VALID,916.063,VALID,0,VALID,97.7762,VALID,-0.0339617,VALID,17.8405,VALID,83,VALID,0,